Content
SEND FEEDBACK

Daily
Averages
Monthly
Summary
United States of America

ELIZABETH, NEW JERSEY


Home > North America > United States > New Jersey
Elevation: 1 foot     Latitude: 40 42N     Longitude: 074 10W

WEATHER
 
SELECT A DAY
Number of Records: 193,900;   Date Range: 1/1/95 - 12/17/14
 
SHARE

PRINT THIS DATA

[ ← Previous Day ]
WEATHER ALMANAC - AUGUST 1, 2013
[ Next Day → ]
[ °C ]   °F
Weather ElementAverageHighLow
Temperature71.1 °F75 °F (8:51 am)69.1 °F (11:51 am)
Dewpoint66.1 °F70 °F (11:51 pm)62.6 °F (1:27 am)
Humidity84.6 %96 % (11:51 pm)66 % (8:51 am)
Barometer29.92 in30.03 in (1:27 am)29.84 in (10:51 pm)
Wind Speed5.2 mph10.4 mph (9:51 am)
Weather ElementAverage
Visibility7.1 mi
Wind DirectionSE (133.8 °)

Weather ElementTotal
Precipitation1.34 in
Cooling Degree Days7.1 (Base 65)
Growing Degree Days22.1 (Base 50)
Averaged from 32 records on August 1, 2013
WEATHER CONDITIONS BREAKOUT
WIND DIRECTION BREAKOUT
WEATHER BY HOUR - AUGUST 1, 2013
[ °C ]   °F
Local TimeTemperatureDewpointHumidityBarometerVisibilityWind DirectionWind SpeedGust SpeedPrecipitationEventsConditions
1:27 AM71.6 °F62.6 °F73 %30.03 in10.0 miCalmOvercast
1:51 AM72.0 °F63.0 °F73 %30.02 in10.0 miSouth (170°)4.6 mphOvercast
2:51 AM72.0 °F63.0 °F73 %30.00 in10.0 miSouth (170°)3.5 mphOvercast
3:51 AM72.0 °F63.0 °F73 %29.98 in10.0 miSouth (190°)3.5 mphOvercast
4:51 AM72.0 °F63.0 °F73 %29.98 in10.0 miSouth (170°)4.6 mphOvercast
5:51 AM72.0 °F64.0 °F76 %29.97 in10.0 miSSE (160°)3.5 mphMostly Cloudy
6:51 AM73.0 °F64.0 °F73 %29.97 in10.0 miSouth (170°)4.6 mphMostly Cloudy
7:51 AM73.9 °F64.0 °F71 %29.97 in10.0 miSSE (160°)6.9 mphMostly Cloudy
8:51 AM75.0 °F63.0 °F66 %29.96 in10.0 miSouth (180°)9.2 mphOvercast
9:51 AM73.0 °F66.0 °F79 %29.96 in9.0 miSouth (190°)10.4 mph0.00 inRainLight Rain
10:51 AM70.0 °F66.0 °F87 %29.96 in6.0 miSouth (190°)8.1 mph0.02 inRainLight Rain
11:51 AM69.1 °F64.9 °F87 %29.96 in6.0 miCalm0.02 inRainLight Rain
12:13 PM69.8 °F64.4 °F83 %29.94 in3.0 miCalm0.05 inRainLight Rain
12:44 PM69.8 °F66.2 °F88 %29.94 in5.0 miSW (220°)4.6 mph0.07 inRainLight Rain
12:51 PM69.1 °F66.0 °F90 %29.94 in5.0 miCalm0.07 inRainRain
1:51 PM69.1 °F66.0 °F90 %29.93 in6.0 miESE (120°)3.5 mph0.13 inRainLight Rain
2:51 PM69.1 °F64.9 °F87 %29.91 in5.0 miSSE (150°)6.9 mph0.05 inRainLight Rain
3:02 PM69.8 °F66.2 °F88 %29.91 in2.5 miVariable6.9 mph0.08 inRainRain
3:10 PM69.8 °F66.2 °F88 %29.90 in1.5 miSE (130°)5.8 mph0.13 inRainHeavy Rain
3:25 PM69.8 °F66.2 °F88 %29.90 in5.0 miSE (130°)5.8 mph0.21 inRainLight Rain
3:51 PM69.1 °F66.0 °F90 %29.89 in6.0 miESE (120°)9.2 mph0.23 inRainLight Rain
4:51 PM71.1 °F66.9 °F87 %29.87 in9.0 miSE (130°)6.9 mph0.02 inOvercast
5:51 PM71.1 °F68.0 °F90 %29.86 in7.0 miSSE (150°)6.9 mph0.03 inRainLight Rain
5:56 PM71.6 °F68.0 °F88 %29.86 in7.0 miVariable6.9 mph0.00 inRainLight Rain
6:51 PM71.1 °F68.0 °F90 %29.86 in5.0 miVariable3.5 mph0.02 inRainLight Rain
7:24 PM71.6 °F69.8 °F94 %29.85 in2.5 miSE (140°)4.6 mph0.04 inRainLight Rain
7:51 PM71.1 °F69.1 °F93 %29.86 in2.5 miSouth (170°)6.9 mph0.05 inRainLight Rain
8:51 PM71.1 °F69.1 °F93 %29.85 in7.0 miSouth (180°)9.2 mph0.00 inLight Drizzle
9:51 PM71.1 °F69.1 °F93 %29.86 in10.0 miSSW (200°)6.9 mph0.00 inOvercast
10:51 PM71.1 °F69.1 °F93 %29.84 in10.0 miSW (220°)5.8 mphOvercast
11:37 PM71.6 °F69.8 °F94 %29.85 in9.0 miSW (230°)4.6 mph0.06 inOvercast
11:51 PM71.1 °F70.0 °F96 %29.84 in9.0 miWSW (240°)3.5 mph0.06 inOvercast
Hourly data recorded from KEWR, located miles away from Elizabeth, New Jersey







STORIES FROM OUR PARTNERS